Location: Erdweis
(48.5167°N, 15.3500°E)
Time: 14:58:06
(UTC+00:00)

NOSS 2-2 (C) - Pass Details

Date: 24 January 2021
Orbit: 463 x 1745 km, 63.3° (Epoch: 03 March)

Event Time Altitude Azimuth Distance (km) Brightness Sun altitude
Rises 20:24:11 0° 314° (NW) 3,187 7.9 -45.4°
Reaches altitude 10° 20:26:20 10° 308° (NW) 2,411 7.1 -45.7°
Enters shadow 20:26:35 11° 307° (NW) 2,327 7.0 -45.7°
